Location: 10033 Water Well
(34.0865°N, 106.8959°W)
Time: 22:44:46
(UTC+00:00)

YAOGAN 1 - Pass Details

Date: 13 January 2026
Orbit: 605 x 607 km, 97.8° (Epoch: 10 February)

Event Time Altitude Azimuth Distance (km) Brightness Sun altitude
Rises 01:25:00 0° 158° (SSE) 2,848 5.9 -13.6°
Reaches altitude 10° 01:27:11 10° 154° (SSE) 1,949 5.0 -14.0°
Maximum altitude 01:31:21 58° 76° (ENE) 710 2.5 -14.9°
Drops below altitude 10° 01:35:32 10° 357° (N) 1,961 5.0 -15.7°
Sets 01:37:44 0° 353° (N) 2,868 5.9 -16.1°
